Weather Roundup
Issued by NWS Corpus Christi, TX

Home | Current Version | Previous Version | Text Only | Print | Product List | Glossary On
Versions: 1 2 3 4 5 6 7 8 9 10 11 12 13 14 15 16 17 18 19 20 21 22 23 24 25 26 27 28 29 30 31 32 33 34 35 36 37 38 39 40 41 42 43 44 45 46 47 48 49 50
000
ASUS44 KCRP 260610
HRRCRP

SOUTH TEXAS REGIONAL WEATHER ROUNDUP
NATIONAL WEATHER SERVICE CORPUS CHRISTI TX
100 AM CDT THU MAY 26 2016


TXZ229>244-260700-
...CORPUS CHRISTI AREA OBSERVATIONS...

CITY           SKY/WX    TMP DP  RH WIND       PRES   REMARKS
CORPUS CHRISTI CLOUDY    82  78  88 SE17G26   29.94F HX  91
NAS CORPUS CHR CLOUDY    82  81  96 SE18G30   29.95F HX  95
ROCKPORT       CLOUDY    82  78  88 SE17G24   29.95F HX  91
KINGSVILLE NAS CLOUDY    82  81  96 SE15      29.94S HX  95
ALICE          CLOUDY    81  77  88 S10G21    29.94S
FALFURRIAS     MOCLDY    81  78  90 SE9       29.93F
$$

...VICTORIA AREA OBSERVATIONS...

CITY           SKY/WX    TMP DP  RH WIND       PRES   REMARKS
VICTORIA       CLOUDY    79  77  94 SE13      29.95F
BEEVILLE       CLOUDY    80  80  99 SE8       29.96F HX  90
PLEASANTON     CLOUDY    79  74  86 E6        29.94F
SAN ANTONIO    CLOUDY    79  74  84 SE12      29.96F
$$

...LAREDO AREA OBSERVATIONS...

CITY           SKY/WX    TMP DP  RH WIND       PRES   REMARKS
LAREDO         CLOUDY    80  77  90 S17       29.94R
COTULLA        CLOUDY    82  76  81 SE7       29.92F
DEL RIO        CLOUDY    81  76  84 S14       29.94R HAZE
MCALLEN        LGT RAIN  77  71  82 SE23G31   29.92F
HEBBRONVILLE   CLOUDY    79  76  92 S9        29.95F
$$

...OTHER TEXAS OBSERVATIONS...

CITY           SKY/WX    TMP DP  RH WIND       PRES   REMARKS
BROWNSVILLE    LGT RAIN  82  80  94 S8        30.02R HX  94
HOUSTON        MOCLDY    79  75  87 S9        30.00F
COL. STATION   MOCLDY    78  75  90 S13       29.97F
AUSTIN         CLOUDY    78  75  90 S8        29.96F
WACO           CLOUDY    78  72  81 SE16      29.94F
FORT WORTH     MOCLDY    80  73  79 S14       29.92F
WICHITA FALLS  CLEAR     77  73  87 S16       29.86F FOG
LUBBOCK        PTCLDY    76  57  51 S13       29.93F
EL PASO        PTCLDY    80  11   7 W22G32    29.97S
$$

...MARINE OBSERVATIONS...

STATION/POSITION TIME  SKY/WX   TEMP    WIND        PRES    VSBY  WAVE   SWELL
                                AIR SEA DIR/SP/G                  HT/PER HT/PER
                 (UTC)          (F)     (DEG/KT/KT) (MB)    (MI)  (FT/S) (FT/S)
PORT ARANSAS     0600            81 83  140/ 21/ 23 1014.6F
BUOY 90 E PORT A 0550            81 81  140/ 16/ 19 1015.8F         4/ 7   2/11
BUOY 45 SE BAFFI 0550            81 81  150/ 21/ 25 1014.0F         4/ 7   3/ 7
BUOY 200 E PT IS 0550                                 N/A           5/ 7   2/12
BUOY 15 E GALVES 0550            80 80  170/ 17/ 21 1015.7F         4/ 6   2/11
$$




USA.gov is the U.S. government's official web portal to all federal, state and local government web resources and services.